When you browse on this site, cookies collect data to enhance your experience and personalize the content and advertising you see.
Visit our Privacy Policy to learn more. By continuing to use the site, you agree to this use of cookies and data.
  • în România
  • Lista ţărilor
  • Pe 7 zile
  • Temperatura apei
  • Meteo pe hartă
  • Widget-uri
  • user-avatar
    Intrare

    Meteo pe oră la Dansaj

    Astăzi, 31 Martie, Marţi

    Timp Temperatura Precipitaţii Vânt Presiune Umiditate
    00:00 +28°C° 0 mm 1 m/s 703 mmHg 36%
    01:00 +25°C° 0 mm 0 m/s 703 mmHg 38%
    02:00 +24°C° 0 mm 0 m/s 702 mmHg 42%
    03:00 +26°C° 0 mm 1 m/s 702 mmHg 45%
    04:00 +25°C° 0 mm 1 m/s 702 mmHg 48%
    05:00 +25°C° 0 mm 1 m/s 702 mmHg 50%
    06:00 +25°C° 0 mm 1 m/s 703 mmHg 51%
    07:00 +26°C° 0 mm 1 m/s 704 mmHg 50%
    08:00 +29°C° 0 mm 1 m/s 705 mmHg 43%
    09:00 +32°C° 0 mm 1 m/s 706 mmHg 36%
    10:00 +35°C° 0 mm 1 m/s 707 mmHg 29%
    11:00 +37°C° 0 mm 1 m/s 706 mmHg 25%
    12:00 +39°C° 0 mm 2 m/s 705 mmHg 21%
    13:00 +41°C° 0 mm 2 m/s 705 mmHg 18%
    14:00 +40°C° 0 mm 2 m/s 704 mmHg 18%
    15:00 +40°C° 0 mm 2 m/s 703 mmHg 17%
    16:00 +40°C° 0 mm 2 m/s 702 mmHg 17%
    17:00 +38°C° 0 mm 2 m/s 702 mmHg 21%
    18:00 +35°C° 0 mm 2 m/s 702 mmHg 24%
    19:00 +32°C° 0 mm 1 m/s 701 mmHg 28%
    20:00 +31°C° 0 mm 1 m/s 702 mmHg 30%
    21:00 +30°C° 0 mm 1 m/s 702 mmHg 31%
    22:00 +27°C° 0 mm 0 m/s 703 mmHg 33%
    23:00 +27°C° 0 mm 0 m/s 703 mmHg 34%

    Mâine, 1 Aprilie, Miercuri

    Timp Temperatura Precipitaţii Vânt Presiune Umiditate
    00:00 +27°C° 0 mm 0 m/s 702 mmHg 35%
    01:00 +26°C° 0 mm 0 m/s 702 mmHg 36%
    02:00 +26°C° 0 mm 0 m/s 702 mmHg 38%
    03:00 +27°C° 0 mm 1 m/s 702 mmHg 39%
    04:00 +26°C° 0 mm 1 m/s 702 mmHg 41%
    05:00 +26°C° 0 mm 1 m/s 702 mmHg 44%
    06:00 +27°C° 0 mm 1 m/s 703 mmHg 46%
    07:00 +27°C° 0 mm 1 m/s 703 mmHg 49%
    08:00 +30°C° 0 mm 1 m/s 704 mmHg 43%
    09:00 +32°C° 0 mm 2 m/s 705 mmHg 37%
    10:00 +36°C° 0 mm 2 m/s 706 mmHg 32%
    11:00 +38°C° 0 mm 2 m/s 706 mmHg 29%
    12:00 +39°C° 0 mm 3 m/s 705 mmHg 26%
    13:00 +40°C° 0 mm 3 m/s 704 mmHg 23%
    14:00 +39°C° 0 mm 3 m/s 704 mmHg 25%
    15:00 +38°C° 0 mm 3 m/s 703 mmHg 27%
    16:00 +37°C° 0 mm 3 m/s 702 mmHg 28%
    17:00 +36°C° 0 mm 2 m/s 702 mmHg 32%
    18:00 +33°C° 0 mm 1 m/s 702 mmHg 35%
    19:00 +32°C° 0 mm 1 m/s 701 mmHg 39%
    20:00 +31°C° 0 mm 1 m/s 702 mmHg 41%
    21:00 +30°C° 0 mm 1 m/s 703 mmHg 43%
    22:00 +29°C° 0 mm 1 m/s 703 mmHg 45%
    23:00 +29°C° 0 mm 1 m/s 703 mmHg 46%

    Poimâine, 2 Aprilie, Joi

    Timp Temperatura Precipitaţii Vânt Presiune Umiditate
    00:00 +29°C° 0 mm 1 m/s 703 mmHg 47%
    01:00 +28°C° 0 mm 1 m/s 703 mmHg 48%
    02:00 +27°C° 0 mm 1 m/s 703 mmHg 51%
    03:00 +27°C° 0 mm 1 m/s 703 mmHg 54%
    04:00 +26°C° 0 mm 1 m/s 703 mmHg 57%
    05:00 +26°C° 0 mm 1 m/s 703 mmHg 56%
    06:00 +26°C° 0 mm 1 m/s 703 mmHg 56%
    07:00 +27°C° 0 mm 1 m/s 704 mmHg 56%
    08:00 +30°C° 0 mm 1 m/s 705 mmHg 47%
    09:00 +33°C° 0 mm 1 m/s 705 mmHg 39%
    10:00 +36°C° 0 mm 1 m/s 706 mmHg 30%
    11:00 +38°C° 0 mm 2 m/s 706 mmHg 28%
    12:00 +39°C° 0 mm 2 m/s 705 mmHg 26%
    13:00 +39°C° 0 mm 2 m/s 704 mmHg 24%
    14:00 +39°C° 0 mm 2 m/s 704 mmHg 26%
    15:00 +38°C° 0 mm 2 m/s 703 mmHg 27%
    16:00 +37°C° 0 mm 2 m/s 702 mmHg 29%
    17:00 +35°C° 0 mm 2 m/s 702 mmHg 32%
    18:00 +33°C° 0 mm 1 m/s 702 mmHg 35%
    19:00 +30°C° 0 mm 0 m/s 702 mmHg 39%
    20:00 +29°C° 0 mm 0 m/s 703 mmHg 41%
    21:00 +28°C° 0 mm 0 m/s 703 mmHg 43%
    22:00 +30°C° 0 mm 1 m/s 703 mmHg 45%
    23:00 +27°C° 0 mm 0 m/s 703 mmHg 47%

    3 Aprilie, Vineri

    Timp Temperatura Precipitaţii Vânt Presiune Umiditate
    00:00 +26°C° 0 mm 0 m/s 703 mmHg 48%
    01:00 +26°C° 0 mm 0 m/s 703 mmHg 50%
    02:00 +25°C° 0.1 mm 0 m/s 703 mmHg 54%
    03:00 +25°C° 0.1 mm 0 m/s 703 mmHg 57%
    04:00 +24°C° 0.1 mm 0 m/s 703 mmHg 61%
    05:00 +24°C° 0.1 mm 0 m/s 704 mmHg 62%
    06:00 +24°C° 0.1 mm 0 m/s 704 mmHg 62%
    07:00 +24°C° 0.1 mm 0 m/s 704 mmHg 63%
    08:00 +30°C° 0 mm 1 m/s 705 mmHg 54%
    09:00 +33°C° 0 mm 1 m/s 706 mmHg 44%
    10:00 +37°C° 0 mm 1 m/s 707 mmHg 34%
    11:00 +37°C° 0 mm 1 m/s 706 mmHg 31%
    12:00 +39°C° 0 mm 1 m/s 706 mmHg 28%
    13:00 +40°C° 0 mm 1 m/s 705 mmHg 25%
    14:00 +38°C° 0 mm 2 m/s 704 mmHg 29%
    15:00 +36°C° 0 mm 2 m/s 703 mmHg 33%
    16:00 +35°C° 0 mm 2 m/s 703 mmHg 38%
    17:00 +32°C° 0 mm 2 m/s 703 mmHg 42%
    18:00 +31°C° 0 mm 2 m/s 703 mmHg 46%
    19:00 +30°C° 0 mm 1 m/s 703 mmHg 51%
    20:00 +29°C° 0 mm 1 m/s 703 mmHg 54%
    21:00 +28°C° 0 mm 1 m/s 704 mmHg 58%
    22:00 +27°C° 0 mm 1 m/s 704 mmHg 61%
    23:00 +25°C° 0 mm 0 m/s 704 mmHg 61%

    4 Aprilie, Sâmbătă

    Timp Temperatura Precipitaţii Vânt Presiune Umiditate
    00:00 +24°C° 0 mm 0 m/s 704 mmHg 61%
    01:00 +24°C° 0 mm 0 m/s 704 mmHg 62%
    02:00 +23°C° 0.1 mm 0 m/s 704 mmHg 64%
    03:00 +23°C° 0.1 mm 0 m/s 704 mmHg 67%
    04:00 +23°C° 0.1 mm 0 m/s 703 mmHg 69%
    05:00 +23°C° 0.1 mm 0 m/s 704 mmHg 68%
    06:00 +23°C° 0.1 mm 0 m/s 704 mmHg 67%
    07:00 +24°C° 0.1 mm 0 m/s 705 mmHg 67%
    08:00 +27°C° 0 mm 0 m/s 706 mmHg 58%
    09:00 +32°C° 0 mm 1 m/s 706 mmHg 48%
    10:00 +35°C° 0 mm 1 m/s 707 mmHg 39%
    11:00 +36°C° 0 mm 1 m/s 706 mmHg 36%
    12:00 +36°C° 0 mm 1 m/s 706 mmHg 32%
    13:00 +37°C° 0 mm 1 m/s 705 mmHg 29%
    14:00 +35°C° 0.3 mm 1 m/s 704 mmHg 34%
    15:00 +34°C° 0.3 mm 1 m/s 703 mmHg 39%
    16:00 +32°C° 0.3 mm 1 m/s 702 mmHg 44%
    17:00 +31°C° 0.1 mm 1 m/s 703 mmHg 47%
    18:00 +30°C° 0.1 mm 1 m/s 703 mmHg 50%
    19:00 +29°C° 0.1 mm 1 m/s 703 mmHg 52%
    20:00 +28°C° 0 mm 1 m/s 703 mmHg 55%
    21:00 +28°C° 0 mm 1 m/s 704 mmHg 57%
    22:00 +27°C° 0 mm 1 m/s 704 mmHg 60%
    23:00 +27°C° 0 mm 1 m/s 704 mmHg 60%

    5 Aprilie, Duminică

    Timp Temperatura Precipitaţii Vânt Presiune Umiditate
    00:00 +24°C° 0 mm 0 m/s 704 mmHg 60%
    01:00 +24°C° 0 mm 0 m/s 704 mmHg 61%
    02:00 +23°C° 0.4 mm 0 m/s 704 mmHg 65%
    03:00 +23°C° 0.4 mm 0 m/s 703 mmHg 68%
    04:00 +22°C° 0.4 mm 0 m/s 703 mmHg 72%
    05:00 +22°C° 0.1 mm 0 m/s 704 mmHg 72%
    06:00 +23°C° 0.1 mm 0 m/s 704 mmHg 72%
    07:00 +23°C° 0.1 mm 0 m/s 705 mmHg 71%
    08:00 +27°C° 0 mm 0 m/s 706 mmHg 60%
    09:00 +30°C° 0 mm 0 m/s 707 mmHg 50%
    10:00 +34°C° 0 mm 0 m/s 708 mmHg 39%
    11:00 +36°C° 0 mm 1 m/s 707 mmHg 35%
    12:00 +37°C° 0 mm 1 m/s 706 mmHg 31%
    13:00 +39°C° 0 mm 2 m/s 706 mmHg 28%
    14:00 +36°C° 0.4 mm 2 m/s 704 mmHg 35%
    15:00 +34°C° 0.4 mm 2 m/s 703 mmHg 43%
    16:00 +30°C° 0.4 mm 2 m/s 702 mmHg 51%
    17:00 +29°C° 0.3 mm 1 m/s 702 mmHg 54%
    18:00 +28°C° 0.3 mm 1 m/s 702 mmHg 57%
    19:00 +26°C° 0.3 mm 0 m/s 703 mmHg 60%
    20:00 +25°C° 0 mm 0 m/s 703 mmHg 61%
    21:00 +25°C° 0 mm 0 m/s 703 mmHg 62%
    22:00 +24°C° 0 mm 0 m/s 704 mmHg 63%
    23:00 +24°C° 0.1 mm 0 m/s 704 mmHg 65%
    Arată mai mult